Time,TemperatureF,DewpointF,PressureIn,WindDirection,WindDirectionDegrees,WindSpeedMPH,WindSpeedGustMPH,Humidity,HourlyPrecipIn,Conditions,Clouds,dailyrainin,SoftwareType,DateUTC
2013-10-09 00:12:00,45.1,44.6,30.24,ESE,112,0.0,-999.0,98,-99.99,,,0.00,Acu-Link.com,2013-10-09 04:12:00,
2013-10-09 00:27:00,45.1,44.6,30.24,NE,45,0.0,-999.0,98,-99.99,,,0.00,Acu-Link.com,2013-10-09 04:27:00,
2013-10-09 00:43:00,45.0,44.5,30.24,West,270,0.0,-999.0,98,-99.99,,,0.00,Acu-Link.com,2013-10-09 04:43:00,
2013-10-09 00:58:00,44.6,44.1,30.24,WSW,247,0.0,-999.0,98,-99.99,,,0.00,Acu-Link.com,2013-10-09 04:58:00,
2013-10-09 01:13:00,44.4,43.9,30.25,SW,225,0.0,-999.0,98,-99.99,,,0.00,Acu-Link.com,2013-10-09 05:13:00,
2013-10-09 01:28:00,44.2,43.7,30.23,WSW,247,0.0,-999.0,98,-99.99,,,0.00,Acu-Link.com,2013-10-09 05:28:00,
2013-10-09 01:44:00,44.1,43.6,30.24,SW,225,0.0,-999.0,98,-99.99,,,0.00,Acu-Link.com,2013-10-09 05:44:00,
2013-10-09 02:00:00,44.1,43.6,30.24,SW,225,0.0,-999.0,98,-99.99,,,0.00,Acu-Link.com,2013-10-09 06:00:00,
2013-10-09 02:15:00,43.9,43.4,30.25,SW,225,0.0,-999.0,98,-99.99,,,0.00,Acu-Link.com,2013-10-09 06:15:00,
2013-10-09 02:31:00,43.5,43.0,30.24,SE,135,0.0,-999.0,98,-99.99,,,0.00,Acu-Link.com,2013-10-09 06:31:00,
2013-10-09 02:46:00,43.5,43.0,30.24,SE,135,0.0,-999.0,98,-99.99,,,0.00,Acu-Link.com,2013-10-09 06:46:00,
2013-10-09 03:01:00,43.5,43.0,30.25,East,90,0.0,-999.0,98,-99.99,,,0.00,Acu-Link.com,2013-10-09 07:01:00,
2013-10-09 03:17:00,43.5,43.0,30.24,East,90,0.0,-999.0,98,-99.99,,,0.00,Acu-Link.com,2013-10-09 07:17:00,
2013-10-09 03:32:00,43.3,42.8,30.24,East,90,0.0,-999.0,98,-99.99,,,0.00,Acu-Link.com,2013-10-09 07:32:00,
2013-10-09 03:47:00,43.0,42.5,30.25,NE,45,0.0,-999.0,98,-99.99,,,0.00,Acu-Link.com,2013-10-09 07:47:00,
2013-10-09 04:02:00,43.0,42.5,30.24,SSE,157,0.0,-999.0,98,-99.99,,,0.00,Acu-Link.com,2013-10-09 08:02:00,
2013-10-09 04:17:00,43.0,42.5,30.25,SE,135,0.0,-999.0,98,-99.99,,,0.00,Acu-Link.com,2013-10-09 08:17:00,
2013-10-09 04:32:00,43.0,42.5,30.24,ESE,112,0.0,-999.0,98,-99.99,,,0.00,Acu-Link.com,2013-10-09 08:32:00,
2013-10-09 04:47:00,42.8,42.3,30.24,South,180,0.0,-999.0,98,-99.99,,,0.00,Acu-Link.com,2013-10-09 08:47:00,
2013-10-09 05:02:00,42.8,42.3,30.25,ESE,112,0.0,-999.0,98,-99.99,,,0.00,Acu-Link.com,2013-10-09 09:02:00,
2013-10-09 05:18:00,42.6,42.1,30.26,SSW,202,0.0,-999.0,98,-99.99,,,0.00,Acu-Link.com,2013-10-09 09:18:00,
2013-10-09 05:33:00,42.6,42.1,30.25,SSE,157,0.0,-999.0,98,-99.99,,,0.00,Acu-Link.com,2013-10-09 09:33:00,
2013-10-09 05:48:00,42.3,41.8,30.25,ESE,112,0.0,-999.0,98,-99.99,,,0.00,Acu-Link.com,2013-10-09 09:48:00,
2013-10-09 06:03:00,42.1,41.6,30.25,SSE,157,0.0,-999.0,98,-99.99,,,0.00,Acu-Link.com,2013-10-09 10:03:00,
2013-10-09 06:18:00,41.5,41.0,30.26,NNE,22,0.0,-999.0,98,-99.99,,,0.00,Acu-Link.com,2013-10-09 10:18:00,
2013-10-09 06:34:00,41.5,41.0,30.26,NNE,22,0.0,-999.0,98,-99.99,,,0.00,Acu-Link.com,2013-10-09 10:34:00,
2013-10-09 06:49:00,41.4,40.9,30.26,NNE,22,0.0,-999.0,98,-99.99,,,0.00,Acu-Link.com,2013-10-09 10:49:00,
2013-10-09 07:04:00,41.0,40.5,30.26,NE,45,0.0,-999.0,98,-99.99,,,0.00,Acu-Link.com,2013-10-09 11:04:00,
2013-10-09 07:20:00,40.6,40.1,30.26,NE,45,0.0,-999.0,98,-99.99,,,0.00,Acu-Link.com,2013-10-09 11:20:00,
2013-10-09 07:35:00,40.5,40.0,30.26,NNE,22,0.0,-999.0,98,-99.99,,,0.00,Acu-Link.com,2013-10-09 11:35:00,
2013-10-09 07:50:00,40.5,40.0,30.27,NE,45,0.0,-999.0,98,-99.99,,,0.00,Acu-Link.com,2013-10-09 11:50:00,
2013-10-09 08:05:00,40.8,40.3,30.27,ESE,112,0.0,-999.0,98,-99.99,,,0.00,Acu-Link.com,2013-10-09 12:05:00,
2013-10-09 08:20:00,41.7,41.2,30.27,North,0,0.0,-999.0,98,-99.99,,,0.00,Acu-Link.com,2013-10-09 12:20:00,
2013-10-09 08:36:00,43.9,43.4,30.29,SSE,157,0.0,-999.0,98,-99.99,,,0.00,Acu-Link.com,2013-10-09 12:36:00,
2013-10-09 08:51:00,46.4,45.9,30.29,South,180,0.0,-999.0,98,-99.99,,,0.00,Acu-Link.com,2013-10-09 12:51:00,
2013-10-09 09:06:00,51.6,51.1,30.29,South,180,0.0,-999.0,98,-99.99,,,0.00,Acu-Link.com,2013-10-09 13:06:00,
2013-10-09 09:22:00,54.3,52.3,30.28,SW,225,0.0,-999.0,93,-99.99,,,0.00,Acu-Link.com,2013-10-09 13:22:00,
2013-10-09 09:37:00,56.3,51.8,30.29,South,180,0.0,-999.0,85,-99.99,,,0.00,Acu-Link.com,2013-10-09 13:37:00,
2013-10-09 09:52:00,58.3,52.8,30.30,North,0,0.0,-999.0,82,-99.99,,,0.00,Acu-Link.com,2013-10-09 13:52:00,
2013-10-09 10:08:00,60.3,53.8,30.29,West,270,0.0,-999.0,79,-99.99,,,0.00,Acu-Link.com,2013-10-09 14:08:00,
2013-10-09 10:23:00,61.7,52.6,30.27,ESE,112,0.0,-999.0,72,-99.99,,,0.00,Acu-Link.com,2013-10-09 14:23:00,
2013-10-09 10:38:00,63.3,53.7,30.28,SW,225,0.0,-999.0,71,-99.99,,,0.00,Acu-Link.com,2013-10-09 14:38:00,
2013-10-09 10:54:00,65.5,53.8,30.24,ENE,67,1.7,-999.0,66,-99.99,,,0.00,Acu-Link.com,2013-10-09 14:54:00,
2013-10-09 11:09:00,66.2,54.1,30.22,NNE,22,0.0,-999.0,65,-99.99,,,0.00,Acu-Link.com,2013-10-09 15:09:00,
2013-10-09 11:24:00,68.0,52.7,30.23,WNW,292,1.7,-999.0,58,-99.99,,,0.00,Acu-Link.com,2013-10-09 15:24:00,
2013-10-09 11:40:00,66.4,51.6,30.22,SSW,202,1.1,-999.0,59,-99.99,,,0.00,Acu-Link.com,2013-10-09 15:40:00,
2013-10-09 11:55:00,67.1,52.3,30.22,SSW,202,0.0,-999.0,59,-99.99,,,0.00,Acu-Link.com,2013-10-09 15:55:00,
2013-10-09 12:10:00,67.1,51.8,30.23,South,180,1.7,-999.0,58,-99.99,,,0.00,Acu-Link.com,2013-10-09 16:10:00,
2013-10-09 12:25:00,67.3,52.9,30.22,SSW,202,1.1,-999.0,60,-99.99,,,0.00,Acu-Link.com,2013-10-09 16:25:00,
2013-10-09 12:41:00,67.6,52.3,30.24,NNE,22,0.0,-999.0,58,-99.99,,,0.00,Acu-Link.com,2013-10-09 16:41:00,
2013-10-09 12:56:00,67.5,52.2,30.24,ESE,112,2.7,-999.0,58,-99.99,,,0.00,Acu-Link.com,2013-10-09 16:56:00,
2013-10-09 13:11:00,66.9,51.2,30.24,NW,315,2.7,-999.0,57,-99.99,,,0.00,Acu-Link.com,2013-10-09 17:11:00,
2013-10-09 13:27:00,67.8,50.5,30.23,NNW,337,1.1,-999.0,54,-99.99,,,0.00,Acu-Link.com,2013-10-09 17:27:00,
2013-10-09 13:42:00,68.5,52.7,30.23,SSE,157,0.0,-999.0,57,-99.99,,,0.00,Acu-Link.com,2013-10-09 17:42:00,
2013-10-09 13:57:00,69.1,51.2,30.21,WNW,292,2.2,-999.0,53,-99.99,,,0.00,Acu-Link.com,2013-10-09 17:57:00,
2013-10-09 14:12:00,72.0,52.3,30.21,SE,135,2.2,-999.0,50,-99.99,,,0.00,Acu-Link.com,2013-10-09 18:12:00,
2013-10-09 14:28:00,69.8,51.9,30.20,NE,45,1.7,-999.0,53,-99.99,,,0.00,Acu-Link.com,2013-10-09 18:28:00,
2013-10-09 14:43:00,70.0,51.0,30.19,SSW,202,1.7,-999.0,51,-99.99,,,0.00,Acu-Link.com,2013-10-09 18:43:00,
2013-10-09 14:58:00,70.3,50.2,30.20,NW,315,2.2,-999.0,49,-99.99,,,0.00,Acu-Link.com,2013-10-09 18:58:00,
2013-10-09 15:14:00,71.6,50.9,30.19,NE,45,4.7,-999.0,48,-99.99,,,0.00,Acu-Link.com,2013-10-09 19:14:00,
2013-10-09 15:29:00,71.1,52.0,30.18,NW,315,0.0,-999.0,51,-99.99,,,0.00,Acu-Link.com,2013-10-09 19:29:00,
2013-10-09 15:45:00,72.0,51.8,30.17,SE,135,1.7,-999.0,49,-99.99,,,0.00,Acu-Link.com,2013-10-09 19:45:00,
2013-10-09 16:00:00,71.4,51.8,30.17,ESE,112,1.1,-999.0,50,-99.99,,,0.00,Acu-Link.com,2013-10-09 20:00:00,
2013-10-09 16:15:00,70.3,51.8,30.19,NW,315,1.1,-999.0,52,-99.99,,,0.00,Acu-Link.com,2013-10-09 20:15:00,
2013-10-09 16:30:00,72.1,51.3,30.18,ESE,112,2.2,-999.0,48,-99.99,,,0.00,Acu-Link.com,2013-10-09 20:30:00,
2013-10-09 16:45:00,70.7,51.1,30.17,West,270,0.0,-999.0,50,-99.99,,,0.00,Acu-Link.com,2013-10-09 20:45:00,
2013-10-09 17:01:00,69.1,51.7,30.17,SSW,202,0.0,-999.0,54,-99.99,,,0.00,Acu-Link.com,2013-10-09 21:01:00,
2013-10-09 17:16:00,68.5,51.7,30.17,WNW,292,0.0,-999.0,55,-99.99,,,0.00,Acu-Link.com,2013-10-09 21:16:00,
2013-10-09 17:31:00,67.5,51.7,30.18,NNW,337,1.1,-999.0,57,-99.99,,,0.00,Acu-Link.com,2013-10-09 21:31:00,
2013-10-09 17:47:00,66.2,52.8,30.17,SE,135,0.0,-999.0,62,-99.99,,,0.00,Acu-Link.com,2013-10-09 21:47:00,
2013-10-09 18:02:00,65.1,53.0,30.18,West,270,0.0,-999.0,65,-99.99,,,0.00,Acu-Link.com,2013-10-09 22:02:00,
2013-10-09 18:17:00,63.7,52.5,30.17,West,270,0.0,-999.0,67,-99.99,,,0.00,Acu-Link.com,2013-10-09 22:17:00,
2013-10-09 18:33:00,61.9,51.6,30.18,West,270,0.0,-999.0,69,-99.99,,,0.00,Acu-Link.com,2013-10-09 22:33:00,
2013-10-09 18:48:00,60.3,51.6,30.17,SE,135,0.0,-999.0,73,-99.99,,,0.00,Acu-Link.com,2013-10-09 22:48:00,
2013-10-09 19:03:00,58.8,52.0,30.17,West,270,0.0,-999.0,78,-99.99,,,0.00,Acu-Link.com,2013-10-09 23:03:00,
2013-10-09 19:18:00,57.7,52.2,30.18,NW,315,0.0,-999.0,82,-99.99,,,0.00,Acu-Link.com,2013-10-09 23:18:00,
2013-10-09 19:33:00,57.0,52.5,30.17,West,270,0.0,-999.0,85,-99.99,,,0.00,Acu-Link.com,2013-10-09 23:33:00,
2013-10-09 19:49:00,56.3,52.8,30.18,North,0,0.0,-999.0,88,-99.99,,,0.00,Acu-Link.com,2013-10-09 23:49:00,
2013-10-09 20:04:00,55.8,53.2,30.17,NNW,337,0.0,-999.0,91,-99.99,,,0.00,Acu-Link.com,2013-10-10 00:04:00,
2013-10-09 20:19:00,54.9,52.6,30.17,NNW,337,0.0,-999.0,92,-99.99,,,0.00,Acu-Link.com,2013-10-10 00:19:00,
2013-10-09 20:34:00,54.7,54.1,30.18,ESE,112,0.0,-999.0,98,-99.99,,,0.00,Acu-Link.com,2013-10-10 00:34:00,
2013-10-09 20:50:00,54.0,53.4,30.17,NE,45,0.0,-999.0,98,-99.99,,,0.00,Acu-Link.com,2013-10-10 00:50:00,
2013-10-09 21:05:00,53.6,53.0,30.18,NW,315,0.0,-999.0,98,-99.99,,,0.00,Acu-Link.com,2013-10-10 01:05:00,
2013-10-09 21:20:00,52.7,52.2,30.17,WNW,292,0.0,-999.0,98,-99.99,,,0.00,Acu-Link.com,2013-10-10 01:20:00,
2013-10-09 21:35:00,52.2,51.7,30.18,SSE,157,0.0,-999.0,98,-99.99,,,0.00,Acu-Link.com,2013-10-10 01:35:00,
2013-10-09 21:51:00,51.6,51.1,30.18,East,90,0.0,-999.0,98,-99.99,,,0.00,Acu-Link.com,2013-10-10 01:51:00,
2013-10-09 22:06:00,51.3,50.8,30.17,East,90,0.0,-999.0,98,-99.99,,,0.00,Acu-Link.com,2013-10-10 02:06:00,
2013-10-09 22:21:00,50.7,50.2,30.17,East,90,0.0,-999.0,98,-99.99,,,0.00,Acu-Link.com,2013-10-10 02:21:00,
2013-10-09 22:36:00,50.0,49.5,30.18,East,90,0.0,-999.0,98,-99.99,,,0.00,Acu-Link.com,2013-10-10 02:36:00,
2013-10-09 22:52:00,49.3,48.8,30.17,ENE,67,0.0,-999.0,98,-99.99,,,0.00,Acu-Link.com,2013-10-10 02:52:00,
2013-10-09 23:07:00,49.1,48.6,30.17,East,90,0.0,-999.0,98,-99.99,,,0.00,Acu-Link.com,2013-10-10 03:07:00,
2013-10-09 23:22:00,48.7,48.2,30.17,ENE,67,0.0,-999.0,98,-99.99,,,0.00,Acu-Link.com,2013-10-10 03:22:00,
2013-10-09 23:38:00,48.6,48.1,30.18,North,0,0.0,-999.0,98,-99.99,,,0.00,Acu-Link.com,2013-10-10 03:38:00,
2013-10-09 23:53:00,48.7,48.2,30.16,NNE,22,0.0,-999.0,98,-99.99,,,0.00,Acu-Link.com,2013-10-10 03:53:00,